BFD65H EDXW-EDDC

Flight info

Callsign BFD65H
Flight time 0h 52m
Altitude 23000
Route OLDIP1B OLDIP DCT PIZID/N0488F450 DCT EKERN M852 AMLUH L619 PITEN Z998 OSKAN OSKAN4B
Aircraft F2TH/M-SBDE3FGHRWXY/S

Departure

Time 2026-04-30 18:40
Airport Westerland Sylt Airport (EDXW)

Arrival

Time 2026-04-30 19:33
Airport Dresden Airport (EDDC)
Time Latitude Longitude Altitude Speed Heading
2026-04-30 18:15 54.92025 8.33892 44 ft 0 kts 86°
2026-04-30 18:35 54.92028 8.33900 44 ft 0 kts 41°
2026-04-30 18:35 54.92032 8.33895 44 ft 1 kts 327°
2026-04-30 18:35 54.92023 8.33848 43 ft 9 kts 250°
2026-04-30 18:36 54.91964 8.33599 36 ft 12 kts 256°
2026-04-30 18:36 54.91957 8.33513 36 ft 0 kts 264°
2026-04-30 18:36 54.91933 8.33411 38 ft 10 kts 202°
2026-04-30 18:37 54.91836 8.33437 39 ft 18 kts 153°
2026-04-30 18:37 54.91715 8.33594 41 ft 26 kts 146°
2026-04-30 18:37 54.91549 8.33791 39 ft 33 kts 145°
2026-04-30 18:37 54.91361 8.34029 37 ft 33 kts 144°
2026-04-30 18:38 54.91186 8.34251 41 ft 30 kts 144°
2026-04-30 18:38 54.91024 8.34455 41 ft 28 kts 145°
2026-04-30 18:38 54.90863 8.34648 36 ft 29 kts 143°
2026-04-30 18:38 54.90704 8.34846 35 ft 28 kts 144°
2026-04-30 18:39 54.90554 8.35025 38 ft 25 kts 148°
2026-04-30 18:39 54.90460 8.35140 39 ft 11 kts 122°
2026-04-30 18:39 54.90413 8.35206 38 ft 9 kts 231°
2026-04-30 18:39 54.90469 8.35110 39 ft 36 kts 323°
2026-04-30 18:40 54.90975 8.34482 48 ft 134 kts 325°
2026-04-30 18:40 54.91729 8.33536 735 ft 135 kts 326°
2026-04-30 18:40 54.92513 8.32572 1427 ft 141 kts 326°
2026-04-30 18:40 54.93375 8.31507 1952 ft 162 kts 324°
2026-04-30 18:41 54.94364 8.30278 2475 ft 186 kts 324°
2026-04-30 18:41 54.95484 8.28884 3018 ft 211 kts 324°
2026-04-30 18:41 54.96731 8.27333 3692 ft 234 kts 324°
2026-04-30 18:41 54.97885 8.25231 4385 ft 252 kts 297°
2026-04-30 18:42 54.98131 8.22146 5062 ft 268 kts 259°
2026-04-30 18:42 54.96170 8.16566 6798 ft 278 kts 227°
2026-04-30 18:42 54.94609 8.14587 7591 ft 282 kts 200°
2026-04-30 18:45 54.77256 8.32349 16295 ft 305 kts 145°
2026-04-30 18:45 54.75458 8.34324 17080 ft 308 kts 145°
2026-04-30 18:45 54.73630 8.36317 17851 ft 313 kts 146°
2026-04-30 18:46 54.71790 8.38318 18639 ft 317 kts 146°
2026-04-30 18:46 54.69913 8.40380 19291 ft 323 kts 144°
2026-04-30 18:46 54.68317 8.43131 19784 ft 329 kts 122°
2026-04-30 18:46 54.67304 8.46706 20383 ft 334 kts 111°
2026-04-30 18:47 54.66436 8.50482 21035 ft 341 kts 110°
2026-04-30 18:47 54.65558 8.54324 21693 ft 347 kts 110°
2026-04-30 18:47 54.64631 8.58228 22358 ft 353 kts 110°
2026-04-30 18:47 54.63686 8.62172 23030 ft 358 kts 110°
2026-04-30 18:48 54.62731 8.66218 23475 ft 371 kts 109°
2026-04-30 18:48 54.61800 8.70393 24082 ft 374 kts 105°
2026-04-30 18:48 54.61331 8.74803 24636 ft 375 kts 96°
2026-04-30 18:48 54.60948 8.79234 25245 ft 378 kts 96°
2026-04-30 18:49 54.60528 8.83735 25852 ft 380 kts 97°
2026-04-30 18:49 54.60094 8.88267 26474 ft 383 kts 97°
2026-04-30 18:49 54.59675 8.92793 26985 ft 389 kts 96°
2026-04-30 18:49 54.59247 8.97448 27500 ft 395 kts 96°
2026-04-30 18:50 54.58806 9.02152 28028 ft 400 kts 97°
2026-04-30 18:50 54.58353 9.06919 28559 ft 405 kts 97°
2026-04-30 18:50 54.57895 9.11750 29106 ft 410 kts 97°
2026-04-30 18:50 54.57431 9.16648 29666 ft 415 kts 97°
2026-04-30 18:51 54.56965 9.21527 30243 ft 419 kts 96°
2026-04-30 18:51 54.56486 9.26511 30772 ft 423 kts 97°
2026-04-30 18:51 54.56001 9.31548 31265 ft 427 kts 97°
2026-04-30 18:51 54.55508 9.36645 31432 ft 439 kts 97°
2026-04-30 18:52 54.54997 9.41915 31429 ft 452 kts 97°
2026-04-30 18:52 54.54467 9.47331 31437 ft 464 kts 97°
2026-04-30 18:52 54.53922 9.52872 31433 ft 475 kts 97°
2026-04-30 18:53 54.52789 9.64328 31440 ft 495 kts 97°
2026-04-30 18:53 54.50760 9.75783 31419 ft 517 kts 115°
2026-04-30 18:53 54.48745 9.80974 31419 ft 528 kts 127°
2026-04-30 18:54 54.46087 9.85450 31438 ft 539 kts 140°
2026-04-30 18:54 54.42902 9.88912 31439 ft 546 kts 152°
2026-04-30 18:54 54.39324 9.91166 31446 ft 549 kts 164°
2026-04-30 18:55 54.31895 9.94268 31458 ft 548 kts 166°
2026-04-30 18:55 54.20848 9.98924 31454 ft 543 kts 165°
2026-04-30 18:56 54.09884 10.03462 31448 ft 540 kts 165°
2026-04-30 18:57 53.98941 10.08009 31435 ft 538 kts 166°
2026-04-30 18:57 53.91683 10.11014 31425 ft 536 kts 165°
2026-04-30 18:58 53.80841 10.15471 31426 ft 534 kts 165°
2026-04-30 18:59 53.70011 10.19907 31423 ft 533 kts 165°
2026-04-30 19:00 53.55728 10.26385 31423 ft 531 kts 163°
2026-04-30 19:00 53.48840 10.30460 31420 ft 527 kts 152°
2026-04-30 19:01 53.42880 10.37456 31428 ft 522 kts 135°
2026-04-30 19:02 53.36633 10.52107 31432 ft 514 kts 115°
2026-04-30 19:03 53.29922 10.73176 31446 ft 514 kts 115°
2026-04-30 19:04 53.23166 10.94208 31437 ft 515 kts 115°
2026-04-30 19:05 53.16364 11.15207 31430 ft 514 kts 115°
2026-04-30 19:06 53.09527 11.36139 31439 ft 514 kts 115°
2026-04-30 19:06 53.04968 11.50029 31440 ft 513 kts 115°
2026-04-30 19:07 53.02088 11.62807 31430 ft 506 kts 102°
2026-04-30 19:07 53.01152 11.68452 31435 ft 506 kts 102°
2026-04-30 19:08 52.95863 11.88039 31426 ft 518 kts 123°
2026-04-30 19:09 52.89344 12.02260 31439 ft 517 kts 123°
2026-04-30 19:09 52.84971 12.11750 31442 ft 517 kts 124°
2026-04-30 19:10 52.76258 12.30637 31448 ft 520 kts 123°
2026-04-30 19:11 52.68974 12.44075 31433 ft 531 kts 137°
2026-04-30 19:12 52.62721 12.50681 31444 ft 536 kts 146°
2026-04-30 19:12 52.56327 12.57004 31449 ft 534 kts 145°
2026-04-30 19:13 52.43538 12.69535 31451 ft 536 kts 145°
2026-04-30 19:14 52.37162 12.75754 31447 ft 536 kts 145°
2026-04-30 19:14 52.30741 12.81994 31454 ft 536 kts 145°
2026-04-30 19:14 52.27557 12.85079 31327 ft 518 kts 145°
2026-04-30 19:15 52.24554 12.87964 31063 ft 486 kts 144°
2026-04-30 19:15 52.18807 12.93591 30430 ft 480 kts 143°
2026-04-30 19:15 52.15982 12.96340 29998 ft 477 kts 144°
2026-04-30 19:16 52.13120 12.99088 29573 ft 474 kts 144°
2026-04-30 19:16 52.10297 13.01811 29156 ft 470 kts 143°
2026-04-30 19:16 52.04709 13.07226 28337 ft 465 kts 144°
2026-04-30 19:17 52.01963 13.09863 27958 ft 461 kts 143°
2026-04-30 19:17 51.96471 13.15139 27173 ft 455 kts 143°
2026-04-30 19:17 51.93753 13.17750 26790 ft 453 kts 143°
2026-04-30 19:18 51.89272 13.22049 26162 ft 444 kts 143°
2026-04-30 19:18 51.85547 13.24951 25578 ft 452 kts 155°
2026-04-30 19:18 51.82488 13.26309 25165 ft 458 kts 163°
2026-04-30 19:19 51.79336 13.27157 24766 ft 456 kts 166°
2026-04-30 19:19 51.76257 13.27992 24387 ft 453 kts 165°
2026-04-30 19:19 51.70051 13.29582 23418 ft 448 kts 166°
2026-04-30 19:20 51.66991 13.30358 22742 ft 442 kts 165°
2026-04-30 19:20 51.63971 13.31146 22081 ft 437 kts 165°
2026-04-30 19:20 51.58022 13.32678 20805 ft 427 kts 165°
2026-04-30 19:21 51.55084 13.33426 20185 ft 423 kts 165°
2026-04-30 19:21 51.49364 13.34894 19001 ft 414 kts 165°
2026-04-30 19:22 51.43736 13.36328 17703 ft 404 kts 165°
2026-04-30 19:22 51.35520 13.38420 15793 ft 392 kts 167°
2026-04-30 19:23 51.27565 13.40437 13959 ft 380 kts 167°
2026-04-30 19:24 51.22418 13.41736 12655 ft 370 kts 167°
2026-04-30 19:24 51.19889 13.42389 12025 ft 366 kts 167°
2026-04-30 19:24 51.15012 13.43573 10793 ft 339 kts 168°
2026-04-30 19:25 51.08422 13.45063 8845 ft 296 kts 168°
2026-04-30 19:26 51.04495 13.45955 7332 ft 272 kts 168°
2026-04-30 19:26 51.01068 13.47245 5665 ft 242 kts 142°
2026-04-30 19:26 50.99929 13.49103 4869 ft 236 kts 126°
2026-04-30 19:27 50.98531 13.53600 3875 ft 227 kts 84°
2026-04-30 19:27 50.99599 13.57690 3997 ft 192 kts 46°
2026-04-30 19:28 51.00521 13.59038 3894 ft 174 kts 41°
2026-04-30 19:28 51.02312 13.61506 3436 ft 169 kts 40°
2026-04-30 19:29 51.04021 13.63855 2990 ft 157 kts 40°
2026-04-30 19:29 51.04781 13.64901 2784 ft 136 kts 40°
2026-04-30 19:30 51.06877 13.67785 2249 ft 126 kts 40°
2026-04-30 19:30 51.08162 13.69582 1916 ft 123 kts 41°
2026-04-30 19:31 51.09459 13.71408 1577 ft 126 kts 40°
2026-04-30 19:31 51.10133 13.72314 1450 ft 125 kts 40°
2026-04-30 19:31 51.11443 13.74090 1098 ft 124 kts 40°
2026-04-30 19:32 51.12094 13.74978 909 ft 122 kts 40°
2026-04-30 19:32 51.12733 13.75848 765 ft 116 kts 40°
2026-04-30 19:32 51.13306 13.76621 740 ft 94 kts 40°
2026-04-30 19:32 51.13741 13.77211 726 ft 77 kts 40°
2026-04-30 19:33 51.13955 13.77557 719 ft 0 kts 126°
2026-04-30 19:33 51.13928 13.77538 720 ft 7 kts 207°
2026-04-30 19:33 51.13880 13.77554 719 ft 9 kts 141°
2026-04-30 19:33 51.13841 13.77625 718 ft 5 kts 129°
2026-04-30 19:34 51.13838 13.77633 718 ft 2 kts 129°
2026-04-30 19:34 51.13822 13.77663 721 ft 0 kts 129°
2026-04-30 19:34 51.13693 13.77641 716 ft 24 kts 220°
2026-04-30 19:35 51.13559 13.77458 721 ft 26 kts 220°
2026-04-30 19:35 51.13430 13.77279 725 ft 23 kts 221°
2026-04-30 19:35 51.13315 13.77120 730 ft 20 kts 221°
2026-04-30 19:35 51.13220 13.76984 733 ft 17 kts 222°
2026-04-30 19:36 51.13144 13.76881 737 ft 12 kts 220°
2026-04-30 19:36 51.13094 13.76849 741 ft 5 kts 148°
2026-04-30 19:36 51.13075 13.76882 742 ft 0 kts 131°